7 * 24
多渠道服务支持
STARLINK-37190(NORAD编号68396)是美国SpaceX公司星链(Starlink)星座中的一颗低轨互联网通信卫星,属于星链卫星组网的组成部分,运行在近地轨道为全球提供宽带互联网服务。星链卫星普遍配备相控阵天线、光学激光星间链路,采用氩气离子推进系统,可实现轨道机动与脱轨操作。该卫星作为批量生产的星链卫星之一,承担着增强星座网络覆盖、提升通信容量的任务,助力星链实现全球互联的目标,目前相关公开信息较少,整体状态需结合SpaceX后续披露信息确认。
美国
(US)
| 数据来源 | 国际轨道数据 |
| 星历时间: | 2026-04-14T19:07:01+0800 6小时前 查看轨道信息 |
| 半长轴: | 6706.118km |
| 偏心率: | 0.000102 |
| 轨道倾角: | 97.283° |
| 近地点辐角 | 68.569° |
| 升交点赤经 | 246.017° |
| 平近点角 | 291.568° |
| 近地点: | 327.296km |
| 远地点: | 328.666km |
| 周期: | 91.089分钟 |
| 每日圈数: | 15.808695 |